This is the latest recevied weather packets stored in our database for station/object KJ5JYX. If no packets are shown the sender has not sent any weather packets the latest 10 day(s).
| Time | Temp. | Humidity | Pressure | Rain* | Wind** | Luminosity | Snow |
|---|---|---|---|---|---|---|---|
| 1777863143 | 18.33° C | 64% | 1018.2 hPa | 0 mm | - | 0 W/m² | - |
| 1777862841 | 18.89° C | 63% | 1018.4 hPa | 0 mm | - | 0 W/m² | - |
| 1777862537 | 18.89° C | 65% | 1018.3 hPa | 0 mm | - | 0 W/m² | - |
| 1777862234 | 18.89° C | 64% | 1018.3 hPa | 0 mm | - | 0 W/m² | - |
| 1777861930 | 18.89° C | 65% | 1018.2 hPa | 0 mm | - | 0 W/m² | - |
| 1777861626 | 18.89° C | 64% | 1018.1 hPa | 0 mm | - | 0 W/m² | - |
| 1777861322 | 19.44° C | 66% | 1018.1 hPa | 0 mm | - | 0 W/m² | - |
| 1777861020 | 19.44° C | 65% | 1018 hPa | 0 mm | - | 0 W/m² | - |
| 1777860716 | 19.44° C | 65% | 1018.3 hPa | 0 mm | - | 0 W/m² | - |
| 1777860413 | 20° C | 63% | 1018.1 hPa | 0 mm | - | 0 W/m² | - |
| 1777860109 | 20° C | 61% | 1018 hPa | 0 mm | - | 0 W/m² | - |
| 1777859806 | 20.56° C | 59% | 1018.1 hPa | 0 mm | - | 0 W/m² | - |
| 1777859503 | 20.56° C | 58% | 1018 hPa | 0 mm | - | 0 W/m² | - |
| 1777859198 | 20.56° C | 57% | 1017.9 hPa | 0 mm | - | 0 W/m² | - |
| 1777858896 | 20.56° C | 57% | 1017.5 hPa | 0 mm | - | 0 W/m² | - |
| 1777858593 | 21.11° C | 57% | 1017.7 hPa | 0 mm | - | 0 W/m² | - |
| 1777858290 | 21.11° C | 54% | 1017.8 hPa | 0 mm | - | 0 W/m² | - |
| 1777857987 | 21.11° C | 52% | 1017.6 hPa | 0 mm | - | 0 W/m² | - |
| 1777857685 | 21.67° C | 52% | 1017.5 hPa | 0 mm | - | 1 W/m² | - |
| 1777857382 | 21.67° C | 51% | 1017.6 hPa | 0 mm | - | 1 W/m² | - |
| 1777857078 | 21.67° C | 51% | 1017.6 hPa | 0 mm | - | 2 W/m² | - |
| 1777856774 | 22.22° C | 50% | 1017.4 hPa | 0 mm | - | 4 W/m² | - |
| 1777856470 | 22.22° C | 49% | 1017.3 hPa | 0 mm | - | 7 W/m² | - |
| 1777856167 | 22.22° C | 51% | 1017.5 hPa | 0 mm | - | 9 W/m² | - |
| 1777855864 | 22.78° C | 48% | 1017.5 hPa | 0 mm | - | 12 W/m² | - |
* Rain latest hour (hover to see other rain measurements)
** Current wind speed in m/s (hover to see current wind gust speed)